Flag for Austria Weather past 2 weeks in Waidhofen an der Thaya, Lower Austria, Austria

Now
51 °F

Cool.


Feels Like: 48 °F
Forecast: 37 / 47 °F
Wind: 7 mph from Southwest

Location: Retz

Current Time: Mar 30, 2015 at 1:58:27 AM

Latest Report: Mar 30, 2015 at 1:00 AM


Visibility: N/A

Pressure: 29.47 "Hg

Humidity: 76%

Dew point: 44 °F

Location of Waidhofen an der ThayaLocation

Historic Weather in Waidhofen an der Thaya — Graph

°F

Waidhofen an der Thaya temperature yesterday

Maximum temperature yesterday: 57 °F (at 3:00 PM)
Minimum temperature yesterday: 36 °F (at 5:00 AM)
Average temperature yesterday: 46 °F

Past Weeks' High & Low Weather Summary

 TemperatureHumidityPressure
High60 °F (Mar 26, 3:00 PM)99% (Mar 15, 3:00 AM)30.53 "Hg (Mar 15, 3:00 AM)
Low30 °F (Mar 23, 6:00 AM)37% (Mar 21, 4:00 PM)29.53 "Hg (Mar 30, 12:00 AM)
Average45 °F68%30.10 "Hg
* Reported Mar 14 11:00 PM — Midnight between Mar 29 and Mar 30, Waidhofen an der Thaya, Weather by CustomWeather, © 2015

Note: Actual official high and low records may vary slightly from our data, if they occured in-between our weather recording intervals... More about our weather records

Advertising

Waidhofen an der Thaya weather history for previous 24 hours

 ConditionsComfort  
Time TempWeatherWind HumidityBarometerVisibility
12:00 AM
Mon, Mar 30
49 °FCool.5 mph81%29.53 "HgN/A
11:00 PM
Sun, Mar 29
49 °FCool.6 mph80%29.56 "HgN/A
10:00 PM49 °FCool.6 mph78%29.60 "HgN/A
9:00 PM51 °FCool.7 mph74%29.63 "HgN/A
8:00 PM51 °FLight rain. Overcast.7 mph77%29.64 "Hg11 mi
7:00 PM51 °FFog.5 mph82%29.65 "HgN/A
6:00 PM53 °FCool.6 mph77%29.66 "HgN/A
5:00 PM54 °FCool.7 mph71%29.67 "HgN/A
4:00 PM56 °FCool.8 mph62%29.69 "HgN/A
3:00 PM57 °FCool.8 mph60%29.69 "HgN/A
2:00 PM56 °FOvercast.7 mph63%29.72 "Hg25 mi
1:00 PM53 °FCool.1 mph73%29.76 "HgN/A
12:00 PM51 °FCool.2 mph74%29.79 "HgN/A
11:00 AM47 °FCool.2 mph79%29.83 "HgN/A
10:00 AM43 °FQuite cool.3 mph82%29.86 "HgN/A
9:00 AM38 °FChilly.3 mph88%29.89 "HgN/A
8:00 AM37 °FOvercast.3 mph91%29.92 "Hg8 mi
7:00 AM37 °FOvercast.2 mph85%29.93 "Hg5 mi
6:00 AM37 °FChilly.2 mph79%29.94 "HgN/A
5:00 AM36 °FChilly.1 mph72%29.95 "HgN/A
4:00 AM40 °FQuite cool.3 mph59%29.96 "HgN/A
3:00 AM38 °FChilly.3 mph64%29.99 "HgN/A
1:00 AM41 °FQuite cool.2 mph55%29.99 "HgN/A
Weather by CustomWeather, © 2015

See weather overviewHow to use our weather pages